Location: Keppel Henge
(44.7900°N, 80.9447°W)
Time: 23:11:53
(UTC-05:00)

Tiangong 2 - Pass Details

Date: 12 October 2017
Orbit: 386 x 390 km, 42.8° (Epoch: 10 December)

Event Time Altitude Azimuth Distance (km) Brightness Sun altitude
Exits shadow 06:50:29 12° 256° (WSW) 1,325 3.2 -8.8°
Maximum altitude 06:53:24 60° 177° (S) 454 1.4 -8.3°
Drops below altitude 10° 06:56:35 10° 96° (E) 1,426 5.7 -7.7°
Sets 06:58:41 0° 93° (E) 2,283 7.7 -7.4°
